{"data":{"norad_id":61198,"epoch":"2026-09-22T20:59:59.391744Z","epoch_age_seconds":89444,"freshness":"FRESH","line1":"1 61198U 24170D   26265.87499296 -.00000031  00000+0  67615-4 0  9997","line2":"2 61198  44.8606  62.8470 0008149 177.1679 182.9199 13.97721028 98200","mean_motion":13.97721028,"eccentricity":0.0008149,"inclination_deg":44.8606,"raan_deg":62.847,"arg_perigee_deg":177.1679,"mean_anomaly_deg":182.9199,"bstar":6.7615e-5,"rev_number":9820,"period_min":103.02485053548,"perigee_km":895.76520516562,"apogee_km":907.62987950272,"semimajor_km":7279.8345423342,"source":"CELESTRAK","updated_at":"2026-09-23T09:00:20.816370Z"}}